Dayton, OH

9:39 AM EDT on April 28, 2017 (GMT -0400)
Cox-Dayton International

Weather History for KDAY - March, 2014

Change the Weather History Date:

Tuesday, March 11, 2014

  Actual Average Record
Temperature  
Mean Temperature 57 °F 38 °F  
Max Temperature 69 °F 48 °F 76 °F (1990)
Min Temperature 45 °F 30 °F 5 °F (1948)
Degree Days  
Heating Degree Days 8 27  
Month to date heating degree days 341 312  
Since 1 July heating degree days 4940 4587  
Cooling Degree Days 0 0  
Month to date cooling degree days 0 0  
Year to date cooling degree days 0 0  
Growing Degree Days 7 (Base 50)    
Moisture  
Dew Point 42 °F    
Average Humidity 60    
Maximum Humidity 80    
Minimum Humidity 39    
Precipitation  
Precipitation 0.00 in 0.10 in 1.00 in (1917)
Month to date precipitation 0.24 1.03  
Year to date precipitation 5.22 5.98  
Snow  
Snow 0.00 in 0.20 in 5.50 in (1906)
Month to date snowfall 2.7 1.7  
Since 1 July snowfall 48.1 21.0  
Snow Depth 0.00 in    
Sea Level Pressure  
Sea Level Pressure 29.67 in    
Wind  
Wind Speed 7 mph (SW)    
Max Wind Speed 14 mph    
Max Gust Speed 17 mph    
Visibility 10 miles    
Events      
T = Trace of Precipitation, MM = Missing Value Source: NWS Daily Summary

Daily Weather History Graph

Daily Weather History Graph

Search for Another Location

Airport or City:

Trip Planner

Search our weather history database for the weather conditions in past years. The results will help you decide how hot, cold, wet, or windy it might be!

Date:

Astronomy

Mar. 11, 2014 Rise Set
Actual Time 7:54 AM EDT 7:39 PM EDT
Civil Twilight 7:27 AM EDT 8:06 PM EDT
Nautical Twilight 6:56 AM EDT 8:37 PM EDT
Astronomical Twilight 6:24 AM EDT 9:09 PM EDT
Moon 3:15 PM EDT (3/11) 4:47 AM EDT (3/11)
Length of Visible Light 12h 38m
Length of Day
11h 44m
Waxing Gibbous, 78% of the Moon is Illuminated
Mar 11
Waxing Gibbous
Mar 16
Full
Mar 23
Last Quarter
Mar 30
New
Apr 7
First Quarter

Hourly Weather History & Observations

Time (EDT) Temp. Dew Point Humidity Pressure Visibility Wind Dir Wind Speed Gust Speed Precip Events Conditions
12:56 AM 51.1 °F 37.0 °F 59% 29.73 in 10.0 mi SSW 8.1 mph - N/A   Overcast
1:56 AM 51.1 °F 37.0 °F 59% 29.71 in 10.0 mi SSW 8.1 mph - N/A   Overcast
2:56 AM 50.0 °F 36.0 °F 59% 29.71 in 10.0 mi SSW 8.1 mph - N/A   Overcast
3:56 AM 50.0 °F 37.0 °F 61% 29.71 in 10.0 mi SSW 6.9 mph - N/A   Overcast
4:56 AM 50.0 °F 37.9 °F 63% 29.70 in 10.0 mi SSW 6.9 mph - N/A   Overcast
5:56 AM 50.0 °F 37.9 °F 63% 29.70 in 10.0 mi SSW 4.6 mph - N/A   Overcast
6:56 AM 48.0 °F 39.0 °F 71% 29.72 in 10.0 mi SSW 5.8 mph - N/A   Overcast
7:56 AM 48.0 °F 39.0 °F 71% 29.71 in 10.0 mi SSW 8.1 mph - N/A   Overcast
8:56 AM 48.9 °F 39.9 °F 71% 29.73 in 10.0 mi SSW 4.6 mph - N/A   Mostly Cloudy
9:56 AM 51.1 °F 41.0 °F 68% 29.73 in 10.0 mi SSW 6.9 mph - N/A   Mostly Cloudy
10:56 AM 55.0 °F 43.0 °F 64% 29.71 in 10.0 mi WSW 8.1 mph - N/A   Scattered Clouds
11:56 AM 59.0 °F 45.0 °F 60% 29.70 in 10.0 mi WSW 9.2 mph - N/A   Scattered Clouds
12:56 PM 62.1 °F 45.0 °F 53% 29.68 in 10.0 mi South 6.9 mph - N/A   Mostly Cloudy
1:56 PM 64.0 °F 45.0 °F 50% 29.67 in 10.0 mi SSW 9.2 mph - N/A   Mostly Cloudy
2:56 PM 66.9 °F 44.1 °F 44% 29.64 in 10.0 mi SW 11.5 mph - N/A   Mostly Cloudy
3:56 PM 66.9 °F 44.1 °F 44% 29.63 in 10.0 mi WSW 5.8 mph - N/A   Mostly Cloudy
4:56 PM 68.0 °F 44.1 °F 42% 29.62 in 10.0 mi SSW 6.9 mph - N/A   Overcast
5:56 PM 68.0 °F 43.0 °F 40% 29.61 in 10.0 mi South 4.6 mph - N/A   Mostly Cloudy
6:56 PM 66.9 °F 42.1 °F 40% 29.60 in 10.0 mi Calm Calm - N/A   Mostly Cloudy
7:56 PM 62.1 °F 42.1 °F 48% 29.61 in 10.0 mi Calm Calm - N/A   Mostly Cloudy
8:56 PM 57.0 °F 42.1 °F 57% 29.63 in 10.0 mi North 11.5 mph - N/A   Mostly Cloudy
9:56 PM 54.0 °F 45.0 °F 72% 29.63 in 9.0 mi NNE 10.4 mph - N/A   Mostly Cloudy
10:56 PM 52.0 °F 45.0 °F 77% 29.64 in 7.0 mi North 9.2 mph - N/A   Mostly Cloudy
11:56 PM 50.0 °F 44.1 °F 80% 29.60 in 6.0 mi NNE 8.1 mph - N/A   Haze